Weather History for Teterboro, NJ

Change the Weather History Date:

Monday, October 21, 2013

  Actual Average Record
Temperature  
Mean Temperature 57 °F -  
Max Temperature 73 °F 60 °F 80 °F (2007)
Min Temperature 44 °F 42 °F 33 °F (1991)
Degree Days  
Heating Degree Days 8    
Growing Degree Days 7 (Base 50)    
Moisture  
Dew Point 38 °F    
Average Humidity 53    
Maximum Humidity 76    
Minimum Humidity 26    
Precipitation  
Precipitation 0.00 in - - ()
Sea Level Pressure  
Sea Level Pressure 30.07 in    
Wind  
Wind Speed 3 mph (SSW)    
Max Wind Speed 15 mph    
Max Gust Speed 20 mph    
Visibility 10 miles    
Events Fog    
Averages and records for this station are not official NWS values.
T = Trace of Precipitation, MM = Missing Value Source: NWS Daily Summary

Daily Weather History Graph

Daily Weather History Graph

Search for Another Location

Airport:

Trip Planner

Search our weather history database for the weather conditions in past years. The results will help you decide how hot, cold, wet, or windy it might be!

Date:

Astronomy

Oct. 21, 2013 Rise Set
Actual Time 7:14 AM EDT 6:06 PM EDT
Civil Twilight 6:46 AM EDT 6:34 PM EDT
Nautical Twilight 6:14 AM EDT 7:06 PM EDT
Astronomical Twilight 5:42 AM EDT 7:38 PM EDT
Moon 7:56 PM EDT (10/21) 9:47 AM EDT (10/21)
Length of Visible Light 11h 47m
Length of Day
10h 52m
Waning Gibbous, 93% of the Moon is Illuminated
Oct 21
Waning Gibbous
Oct 26
Last Quarter
Nov 3
New
Nov 10
First Quarter
Nov 17
Full

Hourly Weather History & Observations

Time (EDT) Temp. Dew Point Humidity Pressure Visibility Wind Dir Wind Speed Gust Speed Precip Events Conditions
12:51 AM 50.0 °F 36.0 °F 59% 30.07 in 10.0 mi Calm Calm - N/A   Clear
1:51 AM 46.0 °F 36.0 °F 68% 30.08 in 10.0 mi Calm Calm - N/A   Clear
2:51 AM 46.9 °F 37.0 °F 68% 30.08 in 10.0 mi Calm Calm - N/A   Clear
3:51 AM 46.0 °F 36.0 °F 68% 30.09 in 10.0 mi Calm Calm - N/A   Clear
4:51 AM 45.0 °F 37.0 °F 74% 30.10 in 10.0 mi Calm Calm - N/A   Clear
5:51 AM 44.1 °F 37.0 °F 76% 30.11 in 10.0 mi Calm Calm - N/A   Clear
6:51 AM 45.0 °F 37.0 °F 74% 30.12 in 10.0 mi Calm Calm - N/A   Clear
7:51 AM 46.9 °F 39.0 °F 74% 30.14 in 10.0 mi Calm Calm - N/A Fog Shallow Fog
8:51 AM 52.0 °F 39.0 °F 61% 30.15 in 10.0 mi Calm Calm - N/A   Clear
9:51 AM 55.9 °F 39.9 °F 55% 30.14 in 10.0 mi Calm Calm - N/A   Clear
10:51 AM 63.0 °F 37.9 °F 40% 30.13 in 10.0 mi Variable 4.6 mph - N/A   Clear
11:51 AM 66.0 °F 35.1 °F 32% 30.12 in 10.0 mi Variable 5.8 mph - N/A   Clear
12:51 PM 66.9 °F 33.1 °F 28% 30.09 in 10.0 mi WSW 10.4 mph - N/A   Clear
1:51 PM 69.1 °F 33.1 °F 26% 30.06 in 10.0 mi SSW 9.2 mph - N/A   Clear
2:51 PM 69.1 °F 34.0 °F 27% 30.04 in 10.0 mi SW 8.1 mph - N/A   Clear
3:51 PM 70.0 °F 34.0 °F 27% 30.01 in 10.0 mi SSW 15.0 mph 19.6 mph N/A   Clear
4:51 PM 66.9 °F 37.9 °F 34% 30.01 in 10.0 mi SSE 12.7 mph - N/A   Clear
5:51 PM 64.0 °F 41.0 °F 43% 30.02 in 10.0 mi South 8.1 mph - N/A   Clear
6:51 PM 62.1 °F 39.9 °F 44% 30.02 in 10.0 mi South 9.2 mph - N/A   Clear
7:51 PM 61.0 °F 39.0 °F 44% 30.03 in 10.0 mi South 12.7 mph - N/A   Clear
8:51 PM 57.9 °F 43.0 °F 58% 30.03 in 10.0 mi SSW 6.9 mph - N/A   Clear
9:51 PM 57.9 °F 45.0 °F 62% 30.03 in 10.0 mi South 8.1 mph - N/A   Clear
10:51 PM 57.0 °F 44.1 °F 62% 30.01 in 10.0 mi South 8.1 mph - N/A   Clear
11:51 PM 55.0 °F 44.1 °F 67% 29.99 in 10.0 mi South 6.9 mph - N/A   Clear